Wind_Speed
6 6 6 6 5 5 5 5 4 4 3 3 3 2 2 2 1 1 2 2 1 2 2 2 3 3 3 3 3 4 6 5 5 6 5 4 5 7 7 8 8 8 8
6 6 6 6 6 6 6 5 5 5 5 4 4 3 3 2 2 2 3 2 2 2 2 3 3 4 4 4 4 4 6 6 5 6 7 6 6 6 7 8 9 8 9
6 6 6 6 6 6 7 6 6 5 5 5 4 4 4 4 3 3 4 3 3 3 3 3 4 4 5 5 4 5 5 6 6 6 7 6 6 6 6 7 8 9 9
7 6 7 7 7 7 7 7 6 6 6 5 5 5 5 5 5 5 5 5 5 5 4 4 4 5 5 5 5 6 6 7 7 7 7 7 6 6 7 7 8 10 10
7 7 7 8 7 7 7 8 7 6 6 6 6 6 7 7 7 7 7 6 6 6 5 5 5 6 6 6 7 7 7 8 8 9 8 7 7 7 7 7 8 10 10
8 8 8 8 8 8 8 9 8 7 7 7 7 7 8 8 8 8 8 8 7 7 7 7 7 7 7 7 8 8 8 8 8 9 9 9 8 8 8 8 9 10 10
9 8 8 9 9 9 9 9 9 8 8 8 8 8 8 9 9 9 9 9 9 8 8 8 8 8 8 8 8 9 9 9 8 9 9 10 10 10 10 9 9 10 11
10 10 10 10 10 10 10 10 9 9 9 9 9 9 9 9 10 11 11 10 10 10 10 10 9 10 10 9 9 9 9 9 9 10 11 11 11 12 11 11 10 11 11
10 10 10 10 10 10 10 10 10 9 10 9 9 9 9 10 10 11 11 11 11 11 11 11 10 11 11 10 10 10 10 10 11 11 12 12 12 12 12 12 11 11 11
11 11 11 11 10 10 11 11 11 11 10 10 10 10 10 10 11 11 11 12 12 12 12 12 12 12 12 11 11 12 12 12 12 11 12 12 12 12 13 13 12 12 12
12 13 12 11 12 11 11 12 12 11 11 11 11 11 11 11 11 11 11 12 12 13 13 13 13 13 13 12 12 13 12 12 12 12 12 12 12 12 12 13 13 13 14
14 14 13 12 12 12 11 11 11 12 12 12 12 12 12 12 12 12 12 12 12 13 14 14 14 14 14 13 13 13 13 13 13 13 13 13 13 13 13 13 13 13 14
15 14 13 12 12 12 12 12 13 13 13 13 12 12 12 13 14 14 13 13 13 13 14 15 15 15 14 14 13 13 14 14 14 14 13 13 14 14 14 14 14 14 14
14 13 12 12 12 12 12 13 13 13 13 14 13 13 13 13 14 14 14 14 14 14 14 15 15 15 15 15 14 14 14 15 15 15 15 15 15 16 16 16 16 16 16
14 13 12 13 13 13 13 14 13 14 14 14 15 14 13 14 14 15 14 15 14 15 15 15 16 16 16 16 15 15 15 15 16 16 16 16 17 17 18 17 17 18 18
15 14 13 14 14 14 14 14 14 15 15 15 14 14 14 14 15 15 15 15 15 15 16 17 16 17 16 16 16 17 16 16 17 17 18 18 18 18 19 19 19 19 19
15 15 15 14 13 13 14 15 16 16 15 15 15 15 16 16 16 16 16 16 16 16 16 16 16 17 17 17 18 18 18 18 18 19 19 19 19 19 20 20 21 20 20
16 16 15 15 14 14 15 16 17 17 16 16 16 17 17 18 18 17 17 16 16 16 17 17 17 17 18 19 19 20 20 19 19 20 20 20 20 21 21 21 22 22 21
16 16 15 15 15 15 16 17 17 17 17 17 17 18 17 18 18 18 18 18 18 18 18 18 17 18 19 20 20 21 21 21 21 21 21 21 21 21 22 22 23 23 22
17 16 16 16 16 16 16 17 17 17 17 18 18 18 18 18 18 19 19 18 19 19 18 18 18 19 20 21 22 22 22 23 22 22 21 22 22 22 23 23 23 23 23
17 17 17 17 17 17 17 17 18 18 18 19 19 19 19 19 19 20 19 19 19 19 19 19 19 20 21 22 23 23 24 24 24 23 23 23 23 23 23 24 24 24 24
18 18 18 19 19 19 19 19 20 20 20 21 21 21 20 20 21 21 20 20 20 20 20 21 21 21 21 22 22 23 23 24 24 24 24 24 24 24 24 24 24 24 25
19 19 19 19 20 21 20 20 21 22 22 22 21 21 21 21 21 22 21 21 21 21 21 22 22 21 21 21 21 21 22 23 24 25 25 25 25 26 26 26 26 26 26
20 20 21 21 21 22 22 22 22 22 22 22 22 22 22 22 22 21 22 22 22 22 22 21 22 21 21 21 22 22 23 24 25 25 26 26 26 27 27 27 27 27 28
21 21 21 21 22 22 22 23 22 22 22 22 23 22 22 22 22 21 21 22 22 23 22 23 24 24 24 23 23 23 24 25 26 27 27 27 28 28 28 27 27 28 29
22 21 22 22 22 22 22 23 23 23 22 22 22 22 21 21 21 20 21 21 22 23 23 24 25 25 25 25 25 25 26 27 27 28 28 29 29 29 28 28 28 28 28
Wind_Direction
347 342 342 342 338 332 327 323 318 318 318 322 322 332 350 359 321 285 254 241 238 251 250 245 230 225 225 226 226 229 229 225 235 234 224 225 221 216 216 213 210 210 216
332 334 334 330 329 325 320 313 308 304 303 307 307 309 318 326 317 295 273 255 243 243 248 251 245 240 235 232 231 231 223 225 232 234 231 223 212 211 219 214 216 218 220
323 324 327 323 318 317 315 310 307 303 297 296 297 292 298 302 306 298 285 273 260 250 248 251 253 247 244 239 240 238 229 227 229 233 224 219 220 225 228 228 227 227 223
321 317 316 315 311 307 306 303 300 296 294 292 289 288 284 285 290 291 289 280 270 258 252 249 252 250 247 245 244 244 236 237 234 233 230 228 227 227 228 232 229 227 231
317 312 312 307 306 303 299 298 297 292 289 288 288 292 285 281 283 284 287 283 278 272 264 261 257 252 246 245 246 248 245 243 238 239 236 235 232 234 233 235 234 232 232
314 308 307 306 303 301 295 293 292 290 287 285 286 288 287 277 275 280 281 279 275 275 271 270 264 256 251 248 246 249 244 241 240 239 243 243 239 236 237 238 236 235 233
311 307 305 302 301 301 297 292 288 287 286 284 281 283 289 280 271 271 276 276 273 271 271 272 268 258 254 247 246 248 247 244 243 241 244 246 245 244 242 240 239 239 237
308 305 301 299 298 297 294 291 288 287 285 283 281 284 287 283 274 269 271 271 270 269 268 269 264 263 257 250 248 249 251 250 244 248 247 249 250 246 240 240 241 241 241
307 304 303 301 298 293 288 286 287 287 288 286 283 284 286 283 278 271 268 267 267 264 263 263 261 260 256 252 250 249 248 250 247 247 245 248 249 247 243 242 243 243 244
309 306 301 297 299 295 290 287 284 286 287 290 288 284 286 286 280 274 268 265 266 263 262 261 259 256 254 253 252 252 248 248 248 247 248 246 245 245 243 241 244 246 247
307 302 298 298 298 299 294 290 287 282 283 286 287 283 281 281 280 276 268 264 266 263 261 259 256 256 254 254 254 250 248 247 246 246 248 247 247 245 244 243 245 247 249
309 302 296 295 297 298 295 290 287 282 283 286 287 283 278 277 279 277 269 268 267 262 260 260 256 256 255 256 253 249 249 249 247 248 251 250 249 246 247 249 250 250 250
310 306 299 296 294 294 293 290 290 288 287 287 285 283 281 279 280 277 269 267 266 263 260 260 259 255 254 254 254 253 252 251 248 249 252 251 251 250 252 252 253 252 252
311 306 303 296 293 292 293 291 292 292 291 286 283 282 280 281 279 274 270 267 264 262 261 260 257 256 254 252 254 255 254 250 250 252 255 255 254 254 255 254 253 254 254
307 307 303 296 294 293 292 292 291 292 292 288 284 284 281 281 279 274 270 268 264 260 259 260 258 256 255 252 252 253 253 252 251 252 255 256 256 256 256 255 256 257 256
308 304 302 301 300 295 294 293 290 290 292 292 286 281 280 278 277 273 268 268 265 261 258 258 256 255 255 253 252 252 253 254 254 256 258 258 258 257 256 257 257 257 256
305 301 298 299 299 296 295 295 293 293 292 290 287 282 279 279 277 274 270 269 264 263 262 260 258 256 256 254 252 254 255 255 255 257 259 259 259 257 256 257 257 258 256
302 299 296 295 294 294 295 295 295 295 292 290 288 283 280 278 277 274 270 268 264 264 266 264 260 258 256 255 254 255 255 255 256 258 258 259 259 258 258 257 256 256 256
299 297 296 295 294 294 294 296 298 294 290 288 286 283 279 277 277 274 271 270 267 265 264 264 262 261 258 256 256 257 256 256 258 260 260 259 260 260 259 258 256 256 257
298 297 297 297 295 295 296 298 299 296 290 288 287 285 280 279 277 273 272 271 268 266 263 264 265 265 262 260 259 258 258 257 258 259 261 261 262 262 261 260 258 257 257
297 295 294 294 296 297 297 298 299 295 291 288 287 285 281 278 276 274 273 271 269 265 265 266 268 267 265 264 261 260 258 256 257 258 260 261 261 263 264 263 259 258 257
298 296 293 291 293 295 295 296 297 294 290 288 286 282 279 278 275 274 272 271 269 267 268 269 268 269 267 267 264 262 260 258 257 258 259 262 264 264 264 263 262 260 258
295 293 293 293 292 292 295 293 294 294 290 287 287 283 280 280 277 274 272 269 268 267 267 267 267 268 268 266 266 266 263 261 259 259 261 263 265 265 265 264 263 261 259
291 292 291 292 292 294 295 296 297 296 293 289 286 284 282 282 281 275 271 269 267 268 267 266 266 267 266 265 265 266 265 264 260 261 262 264 265 265 264 264 262 261 260
289 290 291 292 293 294 295 297 297 297 295 291 287 283 282 281 279 275 271 269 268 266 266 266 266 266 266 265 265 264 265 264 264 263 262 264 266 265 265 264 263 262 260
289 290 291 294 294 294 294 295 297 298 296 291 288 285 283 280 278 275 271 271 270 268 267 268 268 266 265 264 264 264 264 264 264 264 263 264 265 265 264 264 263 262 260
Height
5898 5897 5896 5896 5895 5894 5894 5893 5892 5891 5891 5890 5890 5890 5889 5889 5889 5889 5889 5888 5888 5888 5888 5888 5888 5888 5888 5888 5888 5888 5889 5889 5890 5890 5891 5891 5892 5893 5893 5894 5895 5896 5897
5897 5896 5895 5895 5894 5893 5893 5892 5891 5890 5890 5889 5889 5888 5888 5888 5888 5887 5887 5887 5887 5887 5887 5887 5887 5887 5887 5887 5887 5888 5888 5889 5889 5890 5890 5891 5891 5892 5893 5893 5894 5895 5895
5896 5895 5894 5893 5893 5892 5891 5891 5890 5889 5888 5888 5887 5887 5887 5887 5886 5886 5886 5886 5886 5886 5886 5886 5886 5886 5886 5886 5886 5887 5886 5888 5888 5888 5889 5889 5890 5891 5892 5892 5893 5893 5894
5894 5893 5893 5892 5891 5891 5890 5889 5888 5887 5887 5886 5886 5886 5886 5885 5885 5885 5885 5885 5885 5885 5885 5885 5885 5885 5885 5885 5885 5886 5886 5886 5887 5887 5888 5888 5889 5890 5890 5891 5892 5892 5893
5893 5892 5891 5890 5889 5889 5888 5887 5886 5886 5885 5885 5884 5884 5884 5884 5883 5883 5883 5883 5883 5883 5883 5883 5883 5883 5884 5884 5884 5884 5885 5885 5886 5886 5886 5887 5888 5888 5889 5890 5891 5891 5892
5891 5890 5890 5889 5888 5887 5886 5885 5884 5883 5883 5882 5882 5882 5882 5882 5881 5881 5881 5881 5881 5881 5881 5881 5881 5882 5882 5882 5883 5883 5883 5884 5884 5885 5885 5885 5886 5887 5888 5888 5889 5890 5891
5890 5889 5888 5887 5886 5885 5884 5883 5882 5881 5880 5880 5880 5879 5879 5879 5879 5879 5879 5879 5879 5879 5879 5879 5879 5879 5880 5880 5881 5881 5881 5882 5882 5883 5883 5884 5884 5885 5886 5887 5888 5888 5889
5887 5886 5885 5884 5883 5882 5882 5881 5880 5879 5878 5877 5877 5877 5877 5877 5876 5876 5877 5877 5877 5877 5877 5877 5877 5877 5878 5878 5878 5879 5879 5880 5880 5881 5881 5882 5882 5883 5884 5885 5885 5886 5887
5885 5884 5883 5882 5881 5880 5879 5878 5878 5877 5876 5875 5875 5874 5874 5874 5873 5873 5873 5874 5874 5874 5874 5874 5874 5875 5875 5875 5876 5876 5877 5877 5877 5878 5878 5879 5880 5880 5881 5882 5883 5884 5885
5883 5882 5881 5879 5878 5877 5877 5876 5875 5874 5873 5872 5872 5871 5871 5870 5870 5870 5870 5870 5871 5871 5871 5871 5871 5872 5872 5873 5873 5874 5874 5874 5875 5875 5876 5876 5877 5878 5879 5880 5881 5882 5882
5881 5879 5878 5877 5876 5875 5874 5873 5872 5871 5870 5869 5869 5868 5867 5867 5867 5866 5866 5867 5867 5867 5867 5868 5868 5868 5869 5869 5870 5870 5871 5871 5872 5873 5873 5874 5875 5875 5876 5877 5878 5879 5880
5878 5876 5875 5874 5873 5872 5871 5870 5869 5869 5868 5867 5866 5865 5864 5864 5863 5862 5862 5863 5863 5863 5864 5864 5864 5865 5865 5866 5866 5867 5868 5868 5869 5870 5870 5871 5872 5873 5873 5874 5875 5876 5877
5875 5873 5872 5871 5870 5869 5868 5867 5866 5865 5865 5864 5863 5862 5861 5860 5860 5859 5859 5859 5859 5859 5860 5860 5860 5861 5862 5862 5863 5864 5864 5865 5866 5866 5867 5868 5869 5870 5870 5871 5872 5873 5873
5872 5870 5869 5868 5867 5866 5865 5864 5863 5862 5861 5861 5860 5859 5858 5857 5857 5856 5856 5856 5855 5855 5856 5856 5856 5857 5858 5858 5859 5860 5861 5862 5862 5863 5864 5865 5866 5866 5867 5867 5868 5869 5870
5869 5868 5867 5865 5864 5863 5862 5862 5860 5859 5858 5857 5856 5855 5854 5854 5853 5852 5852 5852 5852 5852 5852 5852 5853 5853 5854 5854 5855 5856 5857 5858 5858 5859 5860 5861 5862 5862 5863 5863 5864 5865 5866
5867 5865 5864 5862 5861 5860 5859 5858 5857 5856 5854 5853 5852 5851 5850 5850 5849 5848 5848 5848 5847 5848 5848 5848 5849 5849 5850 5850 5851 5852 5852 5853 5854 5855 5856 5856 5857 5858 5858 5859 5860 5861 5862
5864 5863 5861 5860 5858 5857 5856 5855 5853 5852 5850 5849 5848 5847 5846 5845 5845 5844 5844 5843 5843 5843 5844 5844 5844 5845 5846 5846 5847 5848 5848 5849 5850 5850 5851 5852 5852 5853 5854 5854 5855 5856 5857
5861 5860 5858 5857 5856 5854 5852 5851 5849 5847 5846 5845 5844 5842 5842 5841 5840 5839 5839 5839 5839 5839 5839 5840 5840 5841 5841 5842 5842 5843 5844 5844 5845 5846 5846 5847 5847 5848 5848 5849 5850 5851 5852
5858 5857 5855 5853 5852 5850 5849 5847 5845 5843 5841 5840 5839 5838 5837 5836 5835 5835 5834 5834 5834 5834 5835 5835 5835 5836 5836 5837 5837 5838 5838 5839 5840 5840 5841 5841 5841 5842 5843 5843 5844 5845 5846
5855 5853 5851 5850 5848 5846 5844 5843 5841 5839 5837 5835 5834 5833 5832 5831 5830 5829 5829 5829 5829 5829 5829 5829 5830 5830 5831 5831 5832 5832 5833 5833 5834 5835 5835 5835 5836 5837 5837 5837 5838 5839 5840
5851 5849 5848 5846 5844 5842 5840 5838 5836 5834 5832 5830 5829 5828 5827 5826 5825 5824 5823 5823 5823 5824 5824 5824 5824 5824 5825 5825 5825 5826 5826 5827 5828 5829 5829 5830 5830 5831 5831 5831 5832 5833 5834
5847 5845 5843 5842 5840 5838 5836 5834 5832 5829 5827 5825 5823 5822 5821 5820 5819 5818 5818 5817 5817 5818 5818 5818 5818 5818 5818 5819 5819 5819 5819 5821 5822 5822 5823 5823 5824 5824 5825 5825 5826 5826 5827
5843 5841 5839 5837 5835 5833 5831 5829 5826 5823 5821 5819 5818 5816 5815 5814 5813 5812 5811 5811 5811 5811 5811 5811 5812 5812 5812 5812 5812 5812 5813 5814 5815 5816 5816 5817 5817 5817 5818 5818 5819 5820 5820
5838 5836 5835 5833 5831 5828 5826 5823 5821 5818 5816 5814 5812 5810 5809 5807 5806 5805 5805 5805 5805 5805 5805 5805 5805 5806 5806 5806 5806 5806 5807 5807 5808 5809 5810 5810 5810 5810 5811 5811 5812 5812 5813
5834 5832 5830 5828 5826 5823 5821 5818 5816 5814 5811 5809 5806 5805 5803 5801 5800 5799 5799 5799 5799 5799 5799 5799 5799 5799 5799 5799 5799 5800 5800 5800 5800 5801 5802 5803 5803 5803 5803 5804 5804 5805 5805
5829 5827 5825 5823 5821 5818 5816 5814 5811 5808 5806 5803 5801 5798 5797 5795 5794 5793 5792 5792 5792 5792 5792 5792 5792 5792 5792 5792 5792 5792 5793 5793 5793 5794 5794 5795 5795 5795 5796 5796 5796 5797 5797